Theta_e
352 353 355 358 359 364 365 365 366 366 366 365 366 366 366 367 367 367 366 366 366 366 365 365 365 365 365 365 365 365 365 365 365 365 364 364 364 364 364 363 363 363 362 362 362 362 361 361 361 361 361 361 361 361 360 360 360 360 361 362 361 362 361 360 360 359 360 359 360 360 360 359 360 359 359 359 360 360 360 361 363 359 358 359 361
350 354 355 356 361 365 365 366 365 366 365 365 365 366 367 367 366 366 366 366 366 365 365 365 365 365 365 365 365 364 365 365 365 364 363 364 364 364 363 363 363 362 362 362 362 361 361 361 360 360 361 361 361 361 360 360 360 359 360 360 361 360 359 359 359 360 360 361 361 360 360 361 361 360 359 359 360 360 359 362 363 358 356 360 361
355 356 356 359 361 366 366 366 366 366 366 365 365 366 366 365 365 366 366 366 365 365 365 365 364 365 365 365 364 364 364 364 364 363 363 364 363 363 362 362 362 361 362 362 361 361 362 361 361 361 360 361 361 360 360 360 360 360 359 361 361 360 359 360 360 359 359 359 359 359 359 360 360 361 361 360 360 359 360 361 362 361 356 359 361
355 356 357 358 365 365 366 365 365 366 365 365 366 366 366 365 366 366 365 365 365 365 365 365 364 364 364 364 364 364 363 363 363 363 363 363 363 362 362 361 361 361 361 361 361 361 361 361 361 361 361 361 361 360 359 359 359 360 360 359 359 358 359 360 359 359 359 360 359 359 358 352 356 360 359 359 360 360 360 360 361 360 360 361 361
356 357 358 360 363 364 366 366 366 366 365 366 366 365 365 365 365 365 365 365 365 365 365 365 365 364 364 365 364 364 364 365 364 363 363 364 363 363 362 362 361 361 361 361 361 361 361 361 361 362 362 362 361 360 359 359 359 359 359 360 360 360 360 359 360 360 359 360 359 357 350 351 351 359 359 358 359 359 360 359 359 359 360 360 361
356 357 359 360 362 363 366 366 366 365 366 366 366 365 365 365 365 365 365 365 365 365 365 365 365 364 364 364 364 363 364 364 362 363 363 362 362 362 363 362 362 362 362 361 361 362 362 361 361 362 361 361 361 360 358 358 357 360 361 360 360 360 359 359 359 361 360 360 359 353 351 352 353 354 359 358 360 360 360 360 360 359 358 358 359
357 359 360 360 361 363 365 366 365 366 366 365 365 365 365 365 365 366 366 365 365 365 365 365 364 364 364 363 363 362 362 362 363 362 362 363 362 362 361 361 361 361 361 362 362 362 362 361 361 360 361 361 361 360 358 357 357 358 360 360 360 359 359 359 358 360 360 356 350 351 351 352 353 354 358 358 360 360 358 357 358 356 357 358 359
358 360 360 360 361 365 366 366 365 366 366 365 365 365 365 365 366 366 365 365 365 364 364 364 363 363 363 363 363 363 362 363 363 361 362 361 361 361 362 363 363 362 362 362 362 362 362 362 362 360 360 361 361 361 360 356 358 359 360 358 359 358 357 358 359 360 359 350 350 351 352 352 353 354 358 358 358 360 358 359 357 357 357 358 359
357 359 361 361 361 366 366 366 366 366 365 365 365 365 364 365 365 365 365 365 364 364 364 363 363 363 363 362 362 362 362 362 362 362 362 361 362 362 361 361 362 362 362 361 363 362 362 362 362 361 359 361 361 361 360 358 357 359 359 359 359 358 358 358 359 360 355 352 351 351 352 352 353 353 357 358 358 358 358 357 356 357 357 358 359
358 360 361 361 362 366 366 366 366 365 365 365 365 365 365 365 365 364 365 364 364 364 363 363 363 363 362 363 363 363 362 362 362 362 362 363 363 363 363 363 363 363 363 362 362 362 363 363 363 362 360 360 361 361 361 359 359 359 358 359 358 358 359 358 360 360 353 353 352 353 357 359 353 353 356 358 358 357 355 357 358 357 356 358 358
358 359 361 361 362 366 365 366 365 365 365 365 365 366 366 365 364 364 364 364 364 364 363 363 363 363 363 363 362 362 362 362 363 363 363 363 363 363 363 363 363 362 362 363 362 362 363 363 362 362 362 360 360 361 361 360 359 359 358 358 359 359 359 360 359 352 352 352 352 353 357 360 353 353 358 357 357 358 357 358 357 357 358 357 358
358 359 360 362 363 363 365 366 365 365 365 365 365 366 365 364 364 364 364 364 364 364 363 363 363 363 363 363 363 363 363 363 363 363 363 362 363 363 363 363 363 363 363 363 363 363 363 363 362 362 362 362 360 359 357 358 359 360 359 359 359 360 360 360 353 351 351 353 354 354 354 354 353 354 358 359 358 358 358 356 356 356 356 356 357
357 359 361 362 362 366 366 366 365 365 365 365 366 365 364 364 364 364 364 364 364 364 363 363 363 363 363 363 363 363 363 363 363 364 364 364 364 364 363 363 363 363 364 363 363 363 363 363 363 362 362 362 362 360 358 358 360 360 360 359 358 360 360 359 350 349 352 352 353 353 353 353 354 357 357 357 359 359 358 356 357 357 357 358 360
356 359 361 362 363 366 366 366 364 364 365 366 366 365 364 364 364 364 364 364 364 363 363 363 363 363 364 364 364 364 363 363 364 363 364 363 364 364 364 363 363 363 364 364 364 363 364 364 363 362 362 363 362 361 359 359 360 359 359 359 360 359 360 358 357 353 353 353 355 353 353 356 354 359 357 357 358 360 359 358 358 358 358 359 359
356 359 361 362 363 362 367 365 365 365 365 366 366 365 365 364 364 365 364 364 363 363 363 363 363 363 364 364 364 364 364 363 363 363 364 364 364 364 364 364 364 364 365 364 364 364 364 364 364 363 363 362 362 361 361 360 359 360 360 359 359 359 361 355 355 353 354 356 355 354 352 353 358 358 358 358 358 358 358 358 359 358 358 359 359
359 360 361 361 361 361 363 365 365 365 366 366 366 366 366 365 365 364 364 364 363 364 364 364 364 364 364 364 364 364 363 363 363 363 364 364 364 364 364 364 365 365 365 365 365 365 365 363 362 363 363 362 362 362 361 359 360 360 359 359 359 359 361 359 353 352 352 352 354 355 353 354 359 358 357 358 358 358 359 359 359 359 359 358 359
359 360 360 360 360 361 362 361 363 366 366 367 366 366 366 367 366 364 364 364 364 364 364 364 364 364 365 365 364 363 364 363 363 364 364 364 364 365 366 365 365 365 365 366 365 365 364 364 363 363 363 362 362 362 361 362 361 361 360 359 360 360 361 361 352 351 352 355 355 353 352 353 359 359 357 358 358 359 359 357 358 359 358 358 358
359 360 359 359 360 361 361 360 361 361 362 365 366 366 367 366 366 365 365 364 365 364 364 364 365 365 365 366 365 365 366 366 365 365 365 365 365 365 365 366 366 366 365 366 365 364 364 364 364 363 363 363 363 362 360 361 360 360 360 359 360 361 362 360 351 353 354 358 353 356 355 356 360 358 359 358 359 358 358 358 358 358 357 358 358
358 359 359 359 359 360 359 360 361 361 361 361 362 364 367 367 366 366 365 365 366 365 364 364 365 365 366 366 366 366 365 365 365 366 366 365 366 365 366 366 366 365 366 366 366 366 366 365 365 364 363 363 363 362 361 361 361 362 362 360 359 359 361 358 352 353 356 353 353 352 352 359 358 357 358 358 358 358 358 358 359 358 358 357 357
357 357 357 358 359 359 359 360 361 361 361 361 362 362 366 367 367 367 367 366 366 366 364 364 365 366 366 366 365 364 364 364 366 364 366 366 366 364 366 366 366 365 366 366 366 366 366 366 366 364 364 363 363 362 362 360 360 361 361 361 359 359 356 351 353 352 352 353 355 353 358 360 358 358 358 358 358 359 358 358 359 358 357 358 358
355 356 356 357 359 359 359 359 360 361 361 361 362 361 364 367 366 367 367 366 366 365 365 365 365 365 365 365 365 362 360 361 363 362 365 365 365 366 366 365 365 365 365 366 365 364 365 364 364 365 365 364 364 364 362 360 360 359 360 358 361 354 351 351 351 354 354 356 357 353 359 360 359 357 358 357 358 358 358 359 359 358 358 358 357
352 354 356 356 357 358 358 359 360 360 361 361 362 362 364 365 362 362 363 364 365 365 362 360 365 359 363 364 361 364 359 358 360 367 363 364 364 366 365 365 364 364 364 364 364 364 364 364 364 364 364 364 365 359 360 368 362 360 360 359 358 349 352 351 351 353 356 353 356 356 361 360 358 358 358 357 357 358 358 358 359 358 358 357 357
350 352 353 355 356 357 358 358 359 359 360 360 362 362 362 361 360 360 361 365 365 365 359 363 356 356 358 358 363 362 358 359 361 364 366 366 365 365 365 364 364 364 364 363 364 363 364 363 362 362 361 363 360 355 355 353 354 363 361 360 349 349 350 351 351 352 352 353 352 359 360 358 358 358 358 357 357 358 358 358 358 358 357 357 356
350 351 351 354 356 355 356 357 358 358 359 359 360 360 360 360 360 359 359 359 359 360 357 356 355 355 357 358 358 361 362 359 367 367 367 364 362 365 364 364 364 364 364 365 364 363 363 362 362 363 365 367 355 355 355 353 354 352 353 354 351 348 348 349 350 350 351 355 352 360 360 359 358 358 358 358 357 358 358 357 357 357 358 357 357
350 351 351 352 354 354 355 356 357 358 357 358 359 359 359 360 359 358 358 357 357 356 356 354 355 355 355 358 357 361 359 359 360 361 357 359 356 356 357 357 355 354 366 353 355 357 360 357 356 361 356 357 357 353 354 352 358 355 353 354 354 348 347 352 349 350 352 353 355 360 359 359 358 358 358 358 357 357 358 357 357 358 358 358 357
350 348 349 352 352 352 354 355 355 357 357 357 358 360 359 358 358 357 357 357 357 355 355 355 354 352 354 355 359 358 357 359 357 356 357 356 356 354 355 355 354 354 362 356 355 355 354 354 354 357 356 354 353 352 352 356 353 352 352 352 354 349 347 349 349 350 351 352 357 360 360 359 359 358 359 358 357 358 357 357 357 357 358 358 357
348 348 349 351 351 351 353 354 354 356 355 357 358 359 357 358 357 357 357 356 356 355 355 355 355 351 354 357 356 355 356 356 357 357 356 358 357 356 355 357 356 356 359 354 354 354 355 353 352 354 353 353 353 353 353 352 352 352 350 351 351 348 347 349 348 349 351 354 359 360 360 360 359 358 358 358 358 358 357 357 357 357 357 358 357
347 347 349 351 351 350 351 353 353 355 354 356 356 356 355 355 355 360 359 357 357 355 355 356 357 353 356 356 358 355 356 355 357 357 357 357 357 357 357 355 355 355 359 354 354 352 352 351 352 352 351 351 351 351 351 352 351 352 351 350 350 346 348 348 348 349 351 354 358 361 360 360 360 359 358 359 358 358 358 357 357 357 357 357 356
345 346 349 349 349 350 351 350 352 353 354 355 353 353 353 354 353 355 355 360 356 355 356 357 357 356 358 358 357 353 354 356 356 356 355 355 356 355 354 354 356 355 356 354 354 352 350 348 349 349 349 348 348 348 350 350 349 349 345 347 350 346 348 348 348 349 351 352 356 359 361 361 360 359 358 358 358 358 358 358 357 357 357 357 357
346 346 348 349 349 350 349 349 351 352 353 354 350 351 352 351 351 353 353 358 355 353 356 357 357 356 357 359 355 353 353 357 356 355 353 354 354 355 354 354 354 356 357 354 355 351 350 349 350 349 349 348 348 349 351 348 349 350 345 344 347 347 349 348 348 349 351 352 354 358 362 361 360 359 359 358 358 359 359 359 357 357 357 357 357
346 345 348 348 349 349 347 348 350 352 353 352 349 350 352 350 351 352 352 353 354 352 356 357 356 356 357 357 355 355 355 358 356 354 353 354 354 355 354 353 355 356 356 354 356 352 351 349 351 350 348 348 351 350 351 349 348 348 350 344 344 346 349 349 349 349 351 352 354 355 359 362 361 360 359 358 358 358 359 359 359 357 357 357 356
344 345 347 348 348 348 347 347 349 351 352 352 350 348 350 349 351 350 350 352 352 350 355 356 357 354 356 356 354 354 360 357 356 356 356 354 353 353 353 354 355 356 357 356 355 353 352 352 352 350 351 353 352 349 347 345 344 346 344 341 343 347 348 349 349 350 351 352 353 354 356 358 361 360 360 359 358 358 359 358 358 357 357 357 357
344 346 347 348 346 347 345 346 349 350 350 351 350 348 349 349 350 349 350 353 351 351 353 354 354 354 355 356 353 355 359 355 355 357 362 354 354 353 355 357 356 357 357 355 356 353 353 353 352 354 349 348 349 347 349 348 347 348 343 342 343 347 349 348 349 349 351 353 354 354 355 359 356 360 360 359 359 358 359 358 358 358 357 357 357
343 346 347 346 347 348 347 347 349 349 350 351 351 348 347 348 352 349 352 352 352 351 353 354 355 355 354 355 353 355 354 354 354 356 357 354 354 354 353 353 356 358 357 355 353 353 351 348 348 350 355 349 345 346 346 346 344 345 342 341 343 347 348 348 348 349 351 352 354 355 355 356 355 355 358 360 359 359 359 358 358 358 358 358 357
345 346 345 346 347 347 347 346 351 349 352 351 352 349 347 349 352 350 351 350 352 350 352 353 355 355 353 354 354 356 354 353 354 355 356 354 355 355 354 354 358 360 359 359 356 355 350 349 351 347 349 350 347 349 348 344 343 342 343 341 343 346 347 347 348 349 350 352 355 355 356 356 354 354 357 355 359 360 360 358 358 358 358 358 358
345 346 346 346 346 346 348 346 350 349 351 351 351 350 349 350 352 356 352 350 351 350 351 355 356 355 354 355 356 357 355 354 355 356 356 355 356 355 355 356 360 357 359 358 358 355 354 353 356 350 347 348 354 347 345 340 344 345 342 339 343 347 345 346 347 348 349 352 353 354 355 355 354 354 359 353 354 358 359 359 359 358 358 358 358
347 347 346 346 346 347 349 346 348 350 352 352 352 351 351 350 352 353 353 351 350 349 352 356 356 355 355 355 357 358 356 357 357 358 356 355 355 354 356 359 359 356 357 357 359 357 354 359 357 358 349 348 349 348 344 343 342 341 337 339 342 344 343 344 346 347 350 350 351 353 354 354 356 362 356 353 354 354 358 360 358 359 358 359 359
348 349 349 348 347 348 349 348 348 351 352 352 352 351 351 351 352 353 355 351 350 349 352 355 355 356 355 354 357 358 358 358 358 358 356 357 357 357 357 359 358 357 357 356 353 355 354 353 350 354 353 350 348 346 342 341 343 341 337 339 340 339 340 342 345 354 346 348 348 350 351 353 356 356 355 354 354 354 354 358 359 359 359 358 359
349 349 350 350 349 350 351 351 349 351 352 352 352 351 351 351 351 352 352 350 350 348 351 353 355 356 356 355 357 358 358 358 358 359 356 360 358 357 356 358 357 354 358 356 355 356 356 353 351 349 353 351 347 344 341 341 341 338 337 337 339 339 340 342 349 345 345 346 348 351 351 351 354 353 353 353 354 353 352 352 353 352 355 359 359
349 349 350 350 349 350 351 352 350 352 352 352 352 351 351 350 349 349 349 348 349 349 349 351 353 355 357 357 356 357 357 358 358 358 357 359 356 355 354 356 354 357 356 354 352 351 354 353 350 349 347 352 353 350 345 342 339 338 340 336 339 340 342 349 343 343 345 344 349 351 349 351 352 352 352 352 353 354 353 353 356 353 353 356 359
348 349 348 349 350 349 351 351 351 352 351 351 350 350 349 348 348 348 348 347 348 349 349 349 351 354 357 357 357 356 357 357 359 357 357 361 356 353 354 354 354 358 356 353 354 353 353 354 354 354 347 346 346 346 340 336 333 330 333 334 336 341 350 343 341 342 343 344 348 347 347 350 349 349 349 351 351 352 352 352 353 353 352 350 355
346 348 348 348 350 349 350 352 352 352 351 351 350 351 351 350 348 347 348 347 348 349 348 348 350 352 356 357 358 356 357 356 359 357 357 357 353 352 353 354 355 357 356 354 353 359 357 354 353 350 352 344 341 346 341 333 330 326 326 328 331 332 343 339 338 340 342 343 345 344 346 347 347 348 348 349 349 350 351 352 353 352 352 352 351
346 347 349 349 349 348 349 352 352 352 351 352 351 351 351 352 349 348 349 348 350 351 351 351 351 351 355 357 358 357 356 356 357 359 355 358 353 352 352 353 355 359 356 353 354 354 352 353 352 348 346 346 348 350 341 331 329 332 330 328 324 324 332 331 337 340 340 340 342 342 344 343 345 346 347 348 348 349 351 351 352 352 352 351 350
346 347 347 348 348 349 348 351 351 352 351 353 353 352 352 352 351 350 351 350 349 351 352 352 349 351 354 356 357 357 356 356 356 358 357 358 355 353 353 354 355 358 356 354 352 352 352 351 351 350 346 341 340 342 344 337 337 329 323 324 322 322 320 323 328 335 339 338 340 340 341 340 343 343 345 347 348 349 349 350 350 351 352 351 351
346 346 347 348 348 348 348 350 351 352 352 354 353 352 353 351 351 351 351 351 352 350 348 348 349 351 354 354 355 357 357 357 357 357 358 357 358 355 355 355 357 358 357 354 353 353 353 353 354 350 347 341 340 340 344 339 336 334 331 327 323 321 320 323 331 330 336 336 336 336 341 338 339 342 344 345 347 348 349 349 349 350 351 350 349
345 347 348 349 349 349 349 350 351 352 352 353 354 353 352 350 348 347 345 346 345 346 345 345 346 347 352 354 356 357 357 357 358 357 358 357 359 357 356 357 357 358 357 355 356 354 353 353 355 352 349 345 342 340 334 346 341 347 335 330 327 322 325 326 326 323 334 338 336 337 339 338 339 341 340 342 343 345 348 348 349 350 350 349 349
345 348 349 349 349 349 350 350 351 352 353 353 353 353 351 350 349 348 347 346 345 346 348 348 348 347 352 353 354 356 357 356 357 357 357 358 359 358 357 358 359 359 360 356 355 355 355 355 357 353 350 350 345 337 331 336 333 336 344 343 345 344 333 327 324 323 324 328 334 333 333 335 337 337 338 340 342 342 344 347 348 350 349 349 349
345 347 348 349 349 349 350 350 352 353 353 354 353 353 350 350 348 348 348 347 346 346 348 348 348 349 349 353 354 355 356 357 357 357 357 358 359 359 358 358 359 360 360 358 357 357 357 357 357 356 353 350 347 342 335 332 328 329 338 338 345 343 337 336 331 328 325 324 326 330 336 334 334 335 338 339 340 341 340 342 345 348 348 348 347
345 346 347 348 349 349 350 350 351 352 352 353 353 352 352 350 349 348 347 348 348 348 349 349 347 350 346 351 352 354 356 356 356 357 357 357 361 360 360 358 358 360 361 360 359 359 357 355 353 353 351 349 347 345 340 334 329 327 331 333 335 336 335 337 335 334 328 323 324 325 326 333 333 333 335 338 339 339 340 340 344 348 348 347 346
345 347 347 348 349 349 349 349 350 352 352 353 353 351 351 352 349 348 347 347 348 348 348 347 347 347 344 348 351 352 354 354 355 356 356 357 359 361 361 360 359 360 362 359 359 358 357 355 354 353 352 349 347 347 344 339 334 331 331 332 331 333 330 331 330 330 331 327 324 325 326 326 326 329 333 333 336 337 338 339 343 345 344 344 344
344 346 346 347 348 348 348 348 349 351 352 352 352 351 351 351 349 348 348 346 347 347 346 346 346 346 344 344 349 351 352 353 354 355 356 356 358 361 361 361 360 361 362 359 358 358 357 355 355 354 352 349 347 347 349 345 339 336 333 330 331 333 328 328 329 329 328 326 325 327 326 329 328 327 331 334 336 336 338 338 340 341 341 341 341
Wind_Speed
4 5 4 9 8 13 18 19 19 19 19 19 19 19 18 18 18 17 17 18 18 18 18 18 18 18 17 17 17 16 16 15 15 15 15 15 14 14 14 14 14 14 14 14 14 14 14 14 14 13 13 13 13 12 12 12 12 13 14 14 13 12 12 13 13 13 13 13 12 11 11 10 10 10 10 12 11 12 12 12 12 8 5 10 16
8 5 5 7 12 14 18 18 19 19 19 19 19 18 18 18 18 18 18 18 18 18 17 17 18 18 18 18 17 17 16 15 15 15 15 14 14 14 14 14 14 14 14 14 13 13 13 13 13 14 13 13 13 12 12 12 12 13 14 14 13 11 12 12 13 13 13 13 12 12 12 12 11 10 10 11 11 12 11 12 12 6 4 13 15
7 7 7 8 16 15 17 18 19 19 19 19 18 18 18 18 18 18 18 18 18 17 17 17 18 18 17 18 17 17 17 16 16 16 15 15 15 14 14 13 13 13 13 13 13 13 13 13 13 13 13 13 12 12 12 13 13 13 14 13 13 13 12 12 13 13 13 12 12 12 13 13 12 11 11 10 11 11 12 12 11 10 8 15 14
8 7 7 12 14 15 17 18 18 19 19 18 18 18 17 18 18 18 18 18 18 17 17 17 17 17 17 17 17 17 16 17 16 16 15 15 15 15 14 14 13 13 13 13 13 13 13 13 13 13 13 12 12 12 12 13 13 13 13 13 13 12 12 12 12 12 12 12 12 8 4 4 8 11 11 10 11 11 12 12 12 14 15 15 15
8 6 5 6 9 12 16 18 18 18 18 18 18 17 17 18 18 18 18 17 17 17 17 17 17 16 17 17 17 16 16 16 15 15 16 15 15 15 14 14 13 13 13 13 13 12 12 12 12 13 12 12 12 12 12 12 13 13 13 11 10 11 11 12 13 13 13 12 11 7 4 3 4 11 11 12 11 11 12 13 13 13 14 15 15
8 7 6 6 7 11 16 17 18 18 18 18 17 17 17 17 18 18 18 17 17 17 17 17 17 17 16 15 16 16 16 16 16 15 14 15 15 15 14 13 13 13 12 12 12 12 12 12 12 11 11 12 11 11 11 11 12 13 11 11 11 10 11 12 11 13 12 12 9 4 4 4 3 6 13 12 14 11 14 14 14 14 14 15 14
10 7 7 7 6 10 15 17 18 18 18 18 17 17 17 18 18 17 17 17 17 17 18 17 17 17 17 16 16 16 16 15 15 15 14 14 13 13 14 13 13 12 12 12 12 11 11 11 11 11 11 11 12 11 11 11 12 12 12 11 11 11 12 11 10 12 12 7 4 4 4 4 3 3 12 13 14 14 15 15 15 13 14 14 13
7 7 7 6 6 12 15 16 18 18 18 18 17 17 17 17 17 17 17 17 17 17 17 17 16 17 16 16 16 16 16 15 14 15 15 15 14 13 13 12 12 12 12 12 12 11 11 10 10 11 11 11 11 11 11 11 12 12 11 10 10 11 11 11 11 12 11 5 4 4 4 3 3 3 10 12 14 15 14 16 13 14 11 12 12
8 8 7 7 8 15 15 16 18 18 17 17 17 17 17 17 17 17 16 16 16 16 16 16 16 16 16 15 15 15 15 15 14 14 14 14 14 14 13 13 13 12 12 12 12 12 11 11 10 10 11 11 11 11 11 11 12 12 11 12 11 11 12 12 12 11 6 4 3 4 4 3 4 3 9 12 15 15 13 14 13 14 14 13 11
9 8 7 6 8 14 15 18 17 18 17 17 17 17 17 16 16 16 16 16 16 16 15 15 15 15 14 14 14 14 14 14 14 13 13 13 13 13 13 13 12 11 12 12 12 12 12 11 10 10 11 11 11 11 11 11 12 11 10 10 11 11 11 12 10 7 4 4 4 4 4 6 3 3 8 10 11 16 14 14 10 11 10 12 13
10 8 7 7 10 15 18 18 18 18 18 18 17 17 16 16 16 16 16 16 16 16 15 15 15 15 14 14 13 13 13 13 13 13 13 12 12 12 12 12 12 12 12 12 12 12 12 11 11 10 11 11 11 11 11 10 10 11 10 10 10 11 11 11 9 4 4 3 3 3 6 9 3 2 8 9 10 11 16 15 14 11 13 11 15
10 8 7 7 15 17 18 18 18 18 18 17 17 17 16 16 16 16 16 16 16 15 16 15 15 14 14 13 13 13 13 13 12 12 12 13 13 13 12 12 12 11 11 11 11 11 11 11 11 10 10 10 11 10 10 10 10 9 8 9 9 10 11 11 6 5 5 5 5 4 4 4 3 5 9 11 12 12 14 17 14 14 13 13 15
11 9 8 8 10 16 17 18 18 18 18 17 17 17 16 16 16 16 16 16 16 15 15 15 15 14 14 13 13 12 12 12 12 12 11 12 12 12 12 12 11 11 11 11 11 12 11 11 11 10 10 10 10 10 9 10 9 8 8 8 9 10 10 9 4 4 4 5 4 4 4 3 4 8 9 11 10 12 12 12 14 14 13 14 14
11 9 8 9 8 16 18 18 18 18 17 18 17 17 17 16 16 16 16 15 15 15 15 15 14 14 14 13 12 12 12 12 12 11 12 12 12 12 12 12 11 11 11 11 11 11 12 11 11 11 10 9 9 10 9 10 10 9 6 7 9 11 11 7 6 4 5 4 4 4 3 3 3 8 12 11 10 12 11 12 12 12 13 14 14
12 11 9 8 9 10 18 18 18 18 17 18 17 17 17 16 16 16 15 15 15 15 14 14 14 13 13 13 12 12 12 12 11 11 11 11 11 11 11 11 11 11 11 11 11 11 12 11 11 10 10 10 10 10 11 9 9 8 6 6 9 11 9 4 3 4 5 4 3 3 4 2 9 11 13 11 11 11 11 11 12 12 13 14 14
12 11 10 9 9 9 9 16 18 18 17 17 16 16 16 16 16 16 15 15 14 14 14 14 13 14 13 13 13 12 12 12 11 11 11 11 11 11 11 11 11 11 11 11 11 11 11 11 11 10 10 10 9 10 10 10 10 8 6 5 7 9 10 6 4 4 5 4 3 3 2 3 9 9 13 13 13 13 13 12 12 11 12 13 13
12 11 11 10 9 8 8 9 12 18 17 17 17 16 16 16 16 16 15 15 14 14 14 14 14 14 14 14 13 13 13 12 12 12 12 11 11 11 11 11 10 10 11 11 11 11 11 10 10 10 9 10 10 9 10 10 9 9 7 7 9 10 11 8 5 5 5 4 3 2 1 1 7 10 12 13 12 13 12 11 10 11 12 12 12
12 11 10 10 9 8 8 8 10 9 9 13 16 16 15 16 15 15 15 15 14 14 14 14 14 14 14 13 13 13 13 12 12 12 12 11 11 11 10 10 9 9 10 10 11 11 11 10 10 9 9 9 9 9 10 9 7 6 6 9 10 10 10 9 5 5 5 5 4 2 1 7 8 10 12 12 12 12 12 11 10 10 10 11 12
11 11 10 10 9 8 8 7 7 7 8 6 6 11 16 15 15 15 15 14 14 14 14 13 14 14 14 13 13 13 13 13 12 12 12 12 11 11 10 9 9 9 9 9 9 9 9 9 9 9 8 8 9 9 10 9 7 7 8 9 10 11 11 7 4 3 4 5 4 3 3 7 7 11 11 12 12 12 12 11 11 10 10 11 12
10 10 10 8 9 8 7 7 7 7 6 6 6 7 12 15 14 14 14 13 14 13 14 13 13 14 14 13 13 10 10 9 12 9 11 11 11 8 10 9 9 8 8 8 8 8 8 7 8 8 8 6 6 7 9 10 9 7 6 7 8 9 6 5 4 4 5 4 4 4 4 7 9 10 11 12 11 12 11 11 11 11 11 10 11
9 9 8 8 9 9 8 7 7 7 7 6 6 6 9 14 12 13 14 14 13 13 13 13 12 12 11 11 10 5 3 4 6 4 9 5 9 10 9 9 8 8 8 7 7 6 6 6 6 6 6 6 5 5 6 8 7 9 7 6 6 4 5 4 5 5 5 4 4 4 6 8 9 11 11 11 11 11 11 11 11 10 11 11 10
10 9 9 9 9 8 9 8 7 8 7 6 5 5 6 10 5 6 6 9 10 11 8 5 7 4 11 7 3 3 3 3 3 6 3 5 6 9 9 9 8 8 7 6 6 6 5 4 4 4 4 4 5 1 1 2 5 5 7 8 3 2 4 5 4 5 5 4 5 5 7 8 10 11 12 12 11 11 11 10 10 10 10 10 11
10 9 9 10 8 8 8 8 8 8 8 6 6 5 5 4 5 4 4 8 7 6 4 4 3 4 4 4 3 3 3 3 2 4 3 7 5 8 8 8 7 7 6 5 5 5 4 3 2 2 1 1 2 2 1 1 0 2 3 4 3 3 4 4 4 4 5 5 4 7 9 11 11 12 12 12 11 11 11 11 10 10 10 10 11
12 10 10 8 9 9 9 9 9 8 8 6 6 4 4 5 5 4 4 4 4 4 4 3 4 3 4 4 4 4 3 3 7 11 8 3 4 7 7 7 7 6 6 3 3 3 2 1 1 1 1 1 0 0 0 1 0 0 1 3 3 3 3 3 5 4 5 6 5 9 10 10 11 11 12 12 11 11 11 10 11 11 11 11 11
10 10 9 9 11 10 9 9 8 8 8 7 6 5 5 5 4 4 4 4 3 4 4 3 4 4 4 4 4 3 4 4 2 4 4 3 2 2 2 2 2 2 4 1 0 1 0 1 2 2 0 1 1 2 1 1 1 1 1 2 3 3 2 2 4 5 4 4 5 11 11 11 11 11 12 11 11 11 10 10 10 11 10 11 11
10 10 11 11 11 11 11 9 8 8 8 7 7 6 6 6 5 5 4 4 4 5 4 4 5 5 4 4 4 4 4 3 4 4 4 4 3 2 2 2 2 2 2 2 2 2 2 2 0 0 0 1 1 2 1 1 2 1 1 2 3 2 4 2 4 5 5 5 5 12 12 11 11 10 11 11 11 11 10 9 9 10 10 10 10
11 10 10 10 11 11 11 10 9 9 8 7 6 6 6 6 5 5 5 5 4 5 5 5 5 5 5 4 5 4 4 3 4 4 4 4 4 3 4 3 3 2 2 3 2 2 2 1 1 1 1 1 1 1 1 1 2 2 3 3 3 3 3 3 3 4 5 5 6 13 11 11 11 10 10 10 11 10 10 9 9 9 9 9 9
10 12 10 11 11 13 12 11 9 10 8 8 8 7 6 6 6 6 6 6 5 5 5 5 5 5 5 5 4 5 5 4 4 4 4 4 4 4 3 3 3 2 1 2 3 2 2 1 1 2 1 1 2 2 1 2 2 4 4 5 4 4 4 4 3 3 4 5 5 10 11 12 11 11 11 10 10 10 10 10 9 9 9 9 9
13 12 11 12 13 12 12 12 10 10 9 9 8 7 7 6 6 6 6 6 6 6 6 5 5 5 5 5 5 5 4 4 4 5 4 4 4 4 4 4 3 4 2 2 2 3 2 1 2 2 0 1 1 2 1 1 3 1 3 6 6 5 5 5 5 4 4 2 4 7 12 12 11 11 11 11 10 11 10 10 9 9 9 9 9
14 13 13 12 12 12 14 13 11 11 10 9 8 8 7 7 7 7 7 6 6 7 5 5 5 5 5 4 6 6 6 6 5 4 5 4 4 3 4 3 4 4 4 4 3 3 3 2 2 1 1 1 1 2 1 2 3 1 3 5 6 6 6 6 5 5 5 3 3 5 12 11 11 11 11 10 10 10 10 10 10 10 9 9 9
13 13 13 12 12 13 14 12 11 11 9 10 8 9 8 7 8 7 6 7 7 6 5 6 5 5 4 5 5 6 6 6 5 5 4 4 4 4 3 2 3 4 4 3 2 2 3 3 3 2 2 1 2 2 2 3 4 5 2 5 6 5 5 5 5 5 5 4 4 3 6 12 11 10 10 10 9 9 10 10 10 10 10 9 9
15 14 13 12 13 15 15 13 12 11 11 10 9 9 9 8 8 8 7 7 6 6 6 5 6 5 4 4 5 6 6 5 6 5 5 5 4 4 3 3 4 3 3 3 4 2 2 2 2 2 1 1 3 3 1 1 4 5 3 6 5 6 6 6 5 5 5 4 4 3 3 6 10 10 10 9 9 9 9 9 10 9 9 10 10
12 13 13 14 15 15 15 13 12 11 12 11 10 9 9 8 8 8 7 7 7 6 6 6 6 5 4 5 5 6 5 6 5 6 5 5 4 4 3 3 3 4 3 3 3 2 2 1 1 1 1 1 2 4 1 1 3 4 1 2 6 7 6 6 5 5 5 5 5 4 4 4 4 9 10 9 9 9 9 9 9 9 9 9 9
12 11 14 15 13 11 11 11 12 13 12 10 9 9 9 8 8 8 7 7 7 7 7 6 6 5 5 6 6 6 5 5 6 5 4 5 4 4 4 4 4 3 4 3 3 3 4 2 2 2 3 2 3 4 2 3 3 2 3 3 5 6 6 5 5 5 4 4 4 4 4 3 3 3 4 9 8 9 10 9 9 9 9 9 10
12 13 16 15 15 13 12 11 12 13 12 10 11 10 9 9 8 7 7 7 7 7 7 6 6 5 6 6 7 6 6 6 5 6 5 5 5 4 4 4 3 3 4 5 5 4 4 5 4 3 1 3 2 4 3 4 1 3 4 5 6 5 5 5 5 5 5 4 4 4 4 4 3 3 3 3 6 7 7 9 10 9 9 9 9
15 14 14 14 14 14 14 13 14 14 12 10 11 10 10 9 7 7 6 6 6 7 6 6 6 6 6 5 6 6 6 6 6 5 5 4 5 5 5 4 3 3 4 4 3 4 4 4 4 4 3 3 4 2 1 1 1 3 3 6 7 7 7 5 5 5 5 5 5 4 4 4 4 4 5 3 3 4 7 8 9 9 9 9 9
15 15 16 15 14 15 15 15 16 15 12 10 10 9 8 8 7 7 7 6 6 6 6 5 6 6 6 6 6 6 5 6 6 5 5 5 5 5 5 4 4 4 3 3 4 4 3 3 3 4 4 1 1 2 2 2 3 4 5 5 6 6 6 6 5 5 4 5 5 5 4 4 4 6 4 4 3 3 4 6 8 9 9 10 9
15 15 16 16 15 14 14 14 14 14 12 9 10 9 8 7 7 7 6 7 7 6 5 6 6 6 7 6 6 6 6 5 5 6 5 5 5 5 4 4 3 4 3 2 2 1 2 2 2 0 2 2 1 1 1 2 0 4 6 6 4 5 5 5 5 4 5 5 4 5 5 4 4 4 4 4 4 4 3 6 8 8 9 9 8
13 16 16 14 13 12 12 13 14 13 12 9 8 9 7 6 5 6 6 6 6 6 5 6 6 6 7 7 6 6 6 6 6 6 6 5 5 4 4 3 3 3 4 3 2 1 1 1 2 0 0 1 1 0 0 0 2 4 5 6 5 5 5 4 5 5 5 6 6 5 4 5 5 4 5 4 4 4 3 2 3 3 4 8 9
14 15 16 15 14 12 12 12 13 13 11 8 7 8 7 7 7 5 5 6 6 6 5 6 6 7 7 8 7 6 6 6 7 6 6 5 5 5 4 3 3 4 4 4 3 3 3 2 1 1 0 1 1 2 1 4 4 4 4 4 5 5 5 5 5 6 5 5 5 5 5 4 4 4 4 4 4 4 5 4 3 4 2 4 8
15 16 16 16 15 14 13 14 13 13 11 10 9 9 10 8 7 8 9 7 6 6 6 6 7 7 8 8 8 7 7 7 6 6 6 5 5 4 3 3 4 4 4 5 4 3 3 3 3 1 2 0 1 2 1 4 5 4 4 3 2 1 4 5 6 5 5 5 5 5 5 5 4 4 4 4 3 3 3 4 4 3 3 3 4
15 17 18 18 16 15 15 13 12 13 13 12 10 10 10 10 10 10 8 7 7 7 7 6 7 7 8 8 8 7 8 7 6 6 6 6 5 4 4 4 5 4 3 3 3 3 3 2 3 1 0 2 1 0 3 3 1 4 5 2 1 2 0 2 3 3 5 4 4 5 5 5 4 4 3 3 3 3 3 4 4 4 3 3 3
18 19 18 17 17 15 14 13 12 13 13 12 11 11 9 8 9 7 9 6 6 6 6 6 6 8 8 9 8 8 8 7 7 7 6 6 6 6 5 5 5 4 3 3 3 3 3 3 4 4 2 0 0 1 3 3 3 2 3 4 1 2 1 1 1 2 4 4 4 5 5 4 5 4 4 4 5 4 4 4 5 5 4 3 3
16 16 17 18 15 14 14 14 14 13 13 13 12 10 10 7 5 6 6 7 7 5 6 4 5 7 9 8 8 9 9 9 8 7 6 6 7 7 5 5 5 4 5 4 3 4 3 3 3 3 3 1 1 2 2 4 4 6 3 2 3 4 1 3 3 3 2 4 7 6 4 5 4 3 4 5 5 5 4 4 5 5 4 4 4
17 17 18 17 14 17 15 16 14 14 13 13 13 10 8 6 5 4 4 4 3 5 5 5 5 7 8 8 9 9 10 9 9 9 7 7 6 6 6 5 5 5 5 5 5 6 5 4 4 3 3 4 3 2 1 1 4 5 6 3 2 1 3 4 2 4 1 1 4 6 5 5 5 5 6 5 5 5 5 4 4 3 4 3 3
17 18 18 18 16 15 15 15 13 13 13 14 14 11 11 11 9 9 9 8 9 9 11 11 8 8 10 9 8 9 10 9 9 9 8 6 7 7 6 5 5 5 5 5 5 3 3 4 5 5 4 3 3 2 1 0 2 5 4 4 6 3 3 2 4 3 1 1 3 5 6 7 6 6 5 5 5 5 5 5 4 5 3 3 4
18 17 17 17 17 16 15 16 14 13 13 13 14 12 11 10 13 12 11 11 11 9 9 8 8 6 5 8 8 8 9 10 8 8 8 7 6 6 6 6 6 6 5 5 5 5 5 5 4 4 5 4 2 3 4 3 1 1 2 2 2 1 5 6 4 2 2 2 1 2 4 5 7 7 7 7 6 6 5 5 5 5 4 4 4
18 17 16 16 18 17 16 16 14 14 13 13 14 14 13 13 13 12 11 11 12 11 11 9 6 5 7 8 7 8 8 8 9 8 8 7 7 7 7 6 6 6 6 6 6 6 5 4 4 5 4 4 5 4 4 3 6 3 1 1 1 1 2 1 5 7 5 4 3 2 0 3 5 6 8 8 7 7 6 5 5 5 5 5 5
17 17 17 16 16 17 16 15 15 14 13 15 15 14 13 13 13 12 11 10 10 9 8 7 7 5 6 6 7 8 8 8 8 9 8 8 7 7 7 6 6 6 6 6 5 5 6 6 5 5 5 5 5 4 4 5 4 5 2 0 1 1 1 1 4 3 4 4 2 3 3 0 0 2 4 6 6 6 6 7 6 6 6 5 5
17 17 16 15 15 14 16 16 16 14 14 15 15 15 14 13 12 12 13 11 8 7 6 8 8 6 6 7 8 8 8 7 7 8 8 8 8 7 7 7 7 6 6 6 5 5 5 5 6 6 5 5 4 5 5 5 6 3 4 5 3 1 2 2 2 2 2 3 6 5 5 6 5 5 4 5 5 6 5 5 6 6 6 6 6
15 17 16 16 15 15 16 17 17 14 15 16 16 16 14 13 13 14 14 13 11 9 8 9 8 7 8 7 8 8 7 8 7 7 8 8 8 7 8 7 7 6 6 6 6 7 6 6 6 5 6 7 5 5 4 4 4 4 3 5 6 6 5 4 5 3 3 2 2 3 2 4 7 4 5 6 6 6 6 6 6 7 7 6 6
Wind_Direction
189 163 167 169 154 143 126 125 123 121 119 118 117 117 118 117 116 115 114 114 113 112 115 116 116 115 115 114 114 113 111 108 108 109 108 109 110 110 111 112 113 112 112 110 106 100 98 98 98 96 95 94 94 93 93 94 96 97 100 103 100 102 106 109 105 100 98 96 96 93 89 89 91 92 100 102 99 99 100 101 100 103 98 103 104
161 163 150 171 165 145 129 126 125 123 120 119 119 120 120 119 117 117 115 114 112 113 116 116 115 116 117 117 117 116 115 113 111 112 113 114 113 114 114 115 116 116 114 111 107 104 102 101 100 100 98 98 97 98 97 96 97 101 103 101 97 94 99 98 99 97 95 95 93 92 90 88 85 84 92 93 95 97 101 105 105 101 92 109 104
139 147 159 161 164 139 131 128 127 124 121 121 121 121 121 119 117 117 116 114 114 116 117 116 115 116 116 116 116 118 118 119 121 119 122 122 121 121 120 121 120 120 118 115 113 110 108 105 105 102 101 100 100 101 101 100 100 102 103 106 110 99 90 96 93 91 90 91 90 88 90 96 96 91 90 97 100 102 106 112 114 105 107 107 100
142 144 147 158 152 137 132 131 128 125 124 123 122 122 120 118 118 117 116 115 116 117 116 115 115 114 115 115 115 116 118 121 123 125 127 125 125 126 125 124 125 123 123 121 117 114 111 110 108 105 105 103 103 100 101 101 104 104 105 105 104 111 110 98 96 93 92 91 84 61 41 57 93 96 97 102 104 106 110 114 117 118 114 106 106
139 139 138 151 143 138 136 132 129 127 125 124 123 122 121 120 119 118 117 117 118 118 116 115 114 114 115 114 116 116 118 120 123 126 128 129 130 129 128 129 127 126 124 123 121 116 110 108 106 104 103 104 102 102 102 104 106 107 104 103 101 96 99 106 104 101 97 91 79 64 44 50 88 98 95 96 103 106 109 106 103 101 104 104 106
140 142 141 141 146 139 134 132 129 127 126 125 124 124 123 122 121 120 118 119 121 119 118 117 116 117 115 115 117 122 126 125 125 125 127 129 130 130 130 130 128 125 123 122 120 117 114 110 108 106 104 104 105 104 104 106 109 108 108 106 103 102 97 98 98 98 95 87 73 55 50 47 58 93 100 94 87 91 98 98 95 101 106 104 103
139 141 142 149 141 135 131 133 129 128 127 127 128 127 126 125 123 121 122 123 122 122 120 120 120 119 119 120 122 122 119 120 122 126 125 123 126 131 130 129 128 127 126 124 122 119 115 113 110 107 106 104 104 106 108 107 108 109 112 109 107 109 112 105 103 97 87 75 69 65 56 56 54 76 99 98 101 95 96 98 98 103 101 106 108
135 140 140 137 136 134 137 134 131 129 130 130 130 130 128 126 124 124 126 125 124 122 121 122 122 120 120 121 121 120 122 123 125 127 130 131 129 124 123 123 124 124 125 124 122 119 115 113 111 109 107 106 105 105 105 106 109 111 107 108 105 109 111 109 105 96 89 77 72 74 67 42 45 67 102 103 102 105 98 102 105 103 103 101 106
139 137 135 136 140 138 140 134 132 133 133 133 133 131 130 128 127 127 128 126 124 123 123 123 121 120 120 121 122 123 124 125 125 123 123 122 122 125 127 125 123 121 120 117 118 117 116 115 111 108 107 106 106 106 106 110 107 102 109 111 116 115 105 98 95 86 80 79 77 81 70 51 54 60 104 105 107 103 107 111 116 115 112 114 114
137 134 133 136 144 140 144 134 135 136 136 135 134 133 130 129 130 131 129 127 125 125 125 124 121 121 122 123 123 126 126 126 125 122 122 125 125 123 121 120 119 118 116 116 114 114 114 112 111 109 107 108 107 106 107 110 114 109 102 103 113 112 107 103 88 77 79 88 95 89 90 79 35 51 107 107 104 116 127 115 107 113 115 117 117
136 134 135 141 146 147 143 137 138 139 138 138 136 133 132 134 134 133 130 128 128 128 127 125 124 125 125 125 124 124 124 125 125 124 124 124 123 123 122 122 121 119 116 113 112 111 111 112 111 109 108 107 109 110 110 111 111 115 115 114 118 118 113 101 87 81 84 86 83 75 95 88 64 47 114 114 111 106 101 97 106 113 120 129 118
135 133 136 141 147 153 141 140 141 141 140 140 137 136 136 138 136 133 131 130 129 129 128 128 128 127 127 125 128 129 128 128 126 126 127 124 124 125 125 122 118 116 114 113 112 112 111 110 109 107 105 105 105 107 109 105 98 98 104 108 109 113 112 105 94 91 84 83 81 80 69 73 89 103 102 110 109 106 109 119 124 128 140 137 115
134 136 137 138 151 150 142 141 143 143 143 141 139 139 140 139 136 134 133 132 132 131 130 129 128 128 127 128 128 129 129 127 126 127 127 126 124 125 123 122 119 116 115 113 111 110 109 108 106 102 100 100 102 108 112 111 99 98 110 110 113 113 109 94 74 80 78 81 80 77 77 76 80 113 101 98 110 106 103 108 118 124 121 113 111
136 138 139 143 155 147 144 143 146 146 145 143 141 142 141 139 137 136 135 133 132 132 131 129 128 129 128 129 130 128 128 128 130 130 129 129 125 125 124 123 122 118 113 113 111 110 109 109 108 107 103 99 101 103 106 102 97 75 67 101 119 120 111 105 98 85 94 90 88 82 81 96 114 116 115 120 109 106 108 109 107 113 118 116 114
139 140 141 147 155 146 146 147 149 148 147 145 143 143 143 141 139 138 136 136 134 132 132 131 130 130 129 129 128 128 126 127 130 130 130 128 127 125 125 124 121 120 118 116 113 111 110 110 110 111 110 104 97 99 102 102 102 106 79 98 124 124 113 88 92 95 98 95 84 86 84 94 117 116 118 119 109 111 112 113 115 120 125 123 118
137 137 141 148 152 146 146 151 151 150 148 147 146 145 144 143 141 139 138 137 136 133 132 132 132 130 131 130 130 129 130 132 133 132 131 131 130 129 127 127 126 124 120 115 112 109 110 110 111 111 109 106 102 98 100 104 103 102 105 107 135 128 126 111 96 90 95 99 99 91 86 133 131 119 112 115 119 122 118 116 117 123 124 125 123
138 138 143 152 147 146 149 151 154 152 150 149 149 148 147 145 143 141 140 139 138 135 134 134 135 135 134 133 132 132 132 132 132 132 132 132 132 131 131 128 126 122 118 114 111 110 108 109 109 109 109 108 106 103 99 100 105 110 115 113 125 134 131 117 108 109 114 117 112 88 93 105 120 116 113 112 112 115 119 118 114 121 131 132 128
140 142 146 150 146 150 149 151 154 151 151 151 151 150 149 148 145 144 143 142 141 139 138 139 138 137 135 135 135 135 134 132 131 130 131 130 130 131 129 128 129 126 120 117 114 113 112 111 109 107 105 107 108 104 106 107 110 114 115 127 132 135 134 125 118 122 125 123 115 124 127 133 122 120 117 116 114 113 115 120 126 126 130 133 132
143 146 147 147 152 152 151 150 152 151 151 150 150 154 153 151 148 147 147 147 145 143 142 141 140 139 138 136 135 134 135 133 130 129 130 129 131 132 134 134 130 127 121 118 118 117 117 115 114 112 109 106 108 111 111 122 126 126 126 129 136 139 134 123 127 125 121 124 134 136 164 137 136 127 124 120 117 116 116 117 121 128 133 134 134
148 148 152 153 154 154 151 150 152 154 150 150 151 153 157 154 151 151 153 153 150 147 146 143 142 141 140 139 136 134 133 133 131 131 132 134 135 137 138 135 132 128 126 123 123 121 116 115 114 113 113 112 104 107 117 124 135 140 136 142 146 133 123 136 130 121 127 139 141 153 155 145 138 134 129 126 123 120 120 119 121 124 128 131 136
153 155 156 159 158 154 153 152 157 153 153 152 150 153 161 156 155 158 160 160 155 153 151 150 145 142 138 138 133 125 112 120 128 142 138 140 146 144 140 137 136 136 135 133 128 119 110 106 105 107 110 111 108 103 116 127 142 141 157 150 159 108 143 143 136 132 138 146 143 158 163 155 147 141 135 131 128 125 123 122 120 121 124 129 135
158 158 162 164 159 157 157 157 158 159 155 153 154 158 163 157 156 163 164 164 160 157 156 155 153 146 145 134 132 144 127 132 150 137 138 150 150 148 147 144 143 143 139 132 126 122 116 107 104 107 117 119 119 95 75 118 152 174 157 171 124 143 148 145 135 137 135 141 150 166 166 164 153 148 142 138 135 132 131 127 123 122 123 128 136
162 162 165 168 163 157 160 162 163 161 157 157 156 163 158 149 161 163 169 168 168 156 156 157 141 161 139 145 151 153 155 164 144 147 151 152 157 154 151 147 146 142 133 129 125 122 129 117 123 150 98 110 98 144 165 181 118 182 180 128 144 169 164 141 143 142 143 151 152 172 166 163 158 154 149 145 141 138 135 132 131 126 124 128 134
163 167 164 165 163 164 166 165 165 164 159 160 158 158 152 156 163 166 172 169 164 150 161 153 168 173 171 166 155 162 161 167 160 151 146 142 154 152 152 151 148 144 132 101 105 131 135 167 217 199 217 35 146 177 217 325 190 105 125 137 143 175 172 153 149 149 153 155 162 173 168 166 163 159 154 151 146 142 139 139 137 134 130 130 133
163 159 164 166 168 166 165 168 167 167 162 162 163 164 158 159 167 173 173 174 160 161 171 171 180 188 181 172 162 156 164 179 133 118 124 134 108 91 91 86 86 112 116 79 69 326 96 11 355 360 44 305 241 217 178 280 290 140 152 177 174 159 163 147 152 147 152 162 166 172 169 169 168 162 159 157 152 149 146 145 143 139 137 135 136
162 167 171 164 170 169 169 168 169 170 170 170 166 167 160 170 176 179 176 185 173 179 189 185 189 195 186 179 159 152 167 147 128 134 146 144 142 144 157 152 150 192 128 127 98 80 68 68 17 17 3 352 229 233 201 186 211 207 191 190 188 163 134 150 156 149 153 163 179 170 170 171 171 168 163 162 157 154 152 151 149 145 143 142 141
171 170 166 166 169 170 171 171 170 170 173 172 167 167 174 178 175 177 176 194 187 186 201 195 197 195 191 176 156 162 164 148 140 148 154 156 154 163 171 158 156 155 159 129 103 106 104 143 109 36 356 9 322 317 262 213 194 201 206 199 188 142 127 152 163 151 154 167 178 173 172 173 173 171 168 167 161 159 159 160 158 152 149 149 150
167 169 167 168 172 174 172 173 173 170 172 175 172 174 175 176 183 183 188 197 191 200 201 200 199 192 187 182 169 162 161 156 155 149 157 159 161 164 164 153 146 151 179 138 122 114 119 176 110 61 31 18 357 309 334 310 244 205 189 197 180 142 140 139 149 148 158 169 179 176 175 175 175 173 171 170 167 165 166 168 166 161 158 156 157
172 171 167 169 175 173 173 176 173 173 173 172 178 179 175 179 183 188 190 197 198 204 204 194 196 190 185 175 168 158 152 162 169 161 159 161 155 159 166 167 161 169 161 151 139 148 138 118 63 39 338 359 314 295 304 309 267 209 201 163 184 155 152 150 153 153 151 187 181 179 179 178 178 175 173 172 172 172 173 174 174 169 168 167 165
177 168 167 173 173 172 176 178 176 175 174 173 179 178 179 182 189 193 194 194 203 205 202 195 200 184 183 169 171 163 164 169 172 167 159 165 164 169 167 178 172 178 163 168 178 154 152 111 115 75 326 307 307 288 339 319 306 284 150 172 171 172 160 154 151 151 152 172 201 186 180 184 182 179 177 174 174 176 179 180 182 178 177 176 175
173 171 171 172 173 172 179 179 178 176 173 178 179 182 179 187 191 197 192 197 201 197 201 199 193 194 177 159 165 171 164 162 167 170 163 163 171 172 175 180 185 190 176 167 156 165 150 150 154 174 230 298 268 282 357 320 302 296 78 166 169 158 136 138 140 148 141 164 198 183 184 187 185 181 182 180 177 180 182 186 188 186 185 185 185
179 175 173 170 172 176 178 180 179 177 176 180 180 181 184 190 194 198 194 201 191 193 197 195 195 198 156 168 162 173 166 162 162 165 166 168 176 181 179 186 200 194 169 153 149 137 138 144 153 202 238 280 292 295 307 282 297 300 66 167 156 138 142 149 149 146 154 170 186 170 171 188 188 184 185 187 186 186 188 187 192 196 192 191 192
181 174 171 172 175 175 177 180 179 180 179 181 183 184 186 190 195 200 197 193 191 188 190 194 194 192 154 168 165 165 162 160 170 168 177 168 176 177 188 201 197 180 162 169 147 143 110 115 233 184 245 302 313 299 293 288 282 292 77 160 127 141 148 151 146 150 167 176 179 163 170 184 188 185 186 191 191 192 195 196 192 198 199 201 200
174 173 171 177 175 176 176 178 181 182 183 181 182 185 188 190 197 199 197 183 185 183 189 188 189 176 156 167 162 163 158 163 161 175 171 164 176 183 195 207 202 184 159 161 154 167 152 164 192 218 223 188 253 272 307 294 261 221 102 122 129 138 144 144 150 157 157 178 170 165 175 183 186 177 181 191 197 196 196 199 199 198 200 202 204
172 172 177 177 175 175 175 181 180 183 184 180 185 188 187 187 193 196 195 179 178 180 183 180 183 173 157 170 163 163 160 163 168 168 178 172 172 188 200 209 191 171 167 179 170 182 170 181 179 196 270 267 265 279 277 254 289 26 69 129 128 128 133 148 151 148 161 168 163 176 173 180 182 178 177 172 199 204 200 203 203 204 205 207 207
174 172 173 175 178 177 178 179 178 182 186 180 184 188 187 185 189 190 190 181 175 175 178 175 178 170 160 169 165 163 162 161 169 170 171 180 177 185 204 190 185 172 157 147 162 174 195 196 198 168 191 234 222 241 188 246 9 27 85 127 141 150 152 150 157 168 168 156 174 179 177 182 183 175 183 172 179 198 204 208 208 211 210 213 215
170 171 174 176 178 178 178 179 180 183 183 178 183 188 185 183 186 186 186 180 182 176 178 170 166 168 164 166 167 164 164 163 170 171 171 182 187 196 194 180 166 167 149 144 155 187 169 152 143 187 177 190 68 7 332 342 1 60 95 119 140 146 153 162 166 169 144 167 182 178 176 187 190 188 165 172 178 190 203 207 214 214 216 216 221
175 173 175 177 179 177 179 180 181 181 182 177 181 186 186 180 182 183 177 179 187 176 169 163 166 167 164 167 167 163 168 169 172 171 176 184 188 191 183 167 164 147 135 131 143 141 114 133 121 86 125 104 10 11 299 330 81 82 129 131 140 142 155 155 164 158 162 177 183 182 187 180 181 178 164 176 184 187 195 210 214 220 221 222 226
176 178 176 177 178 176 178 180 179 180 182 175 177 181 176 175 174 177 174 179 185 187 157 165 169 165 172 171 169 168 169 169 173 171 170 182 184 190 182 166 155 142 138 142 157 152 114 93 142 189 35 145 151 164 198 182 53 100 103 136 132 153 159 163 161 162 182 182 184 186 163 180 177 168 167 179 181 183 191 202 203 209 230 231 231
175 179 178 177 179 176 177 176 179 179 175 174 171 176 174 176 177 176 176 188 188 189 175 169 175 174 176 175 177 174 174 172 174 173 167 175 179 190 188 158 155 155 145 150 163 169 158 138 151 165 239 359 77 114 66 80 59 76 101 112 139 154 161 163 160 180 181 182 183 165 177 174 176 171 171 174 173 183 188 191 194 200 219 249 241
175 178 179 180 181 179 175 178 178 176 175 176 180 176 180 180 180 183 189 189 185 188 187 174 181 184 178 178 178 179 177 174 178 170 169 177 185 185 183 167 168 170 164 179 180 177 176 163 165 176 156 160 328 91 121 109 106 49 44 88 96 107 167 160 173 170 185 178 161 164 171 167 179 178 179 160 173 181 183 188 195 194 216 232 248
180 178 181 183 183 180 181 178 175 179 181 182 182 183 184 185 181 185 179 183 184 186 194 188 185 186 182 179 181 180 178 178 178 176 168 175 178 186 189 183 177 180 179 172 172 176 145 140 144 155 341 148 206 234 145 104 38 137 122 89 37 337 94 155 179 190 179 165 166 163 169 171 178 191 156 154 167 170 183 189 192 196 211 214 225
178 181 181 181 183 183 183 178 179 181 183 183 182 188 187 184 183 178 177 180 195 193 191 184 187 179 186 183 181 180 179 182 182 178 170 180 181 181 192 186 186 175 157 172 165 181 161 166 165 169 222 8 265 250 159 141 153 114 107 92 150 89 331 8 314 228 197 162 174 174 177 168 183 175 159 156 175 183 187 187 191 196 204 202 193
177 181 182 183 183 185 183 181 182 182 183 185 187 188 184 177 170 163 172 174 185 188 189 177 176 175 184 185 185 180 180 183 185 184 179 179 177 187 184 185 193 180 166 173 182 194 181 167 174 189 142 146 283 268 183 189 132 126 128 164 197 124 81 259 239 265 145 166 178 188 167 169 173 150 146 172 189 190 197 187 201 198 197 190 178
178 180 182 183 185 184 182 181 181 183 183 183 182 175 169 154 142 125 135 137 131 182 190 216 185 187 175 184 190 183 181 183 186 187 185 181 180 180 180 188 185 184 171 180 188 200 191 185 182 178 182 173 207 261 284 167 150 166 135 103 59 77 204 228 152 271 35 112 195 164 168 158 166 170 173 190 188 185 190 193 205 200 201 186 176
181 182 183 184 181 181 176 179 180 183 184 182 176 171 175 172 164 160 168 177 185 189 199 202 196 188 191 183 182 185 184 184 185 188 188 181 182 183 181 179 189 185 185 193 197 189 186 185 197 188 201 201 166 177 248 215 192 186 168 169 165 172 188 221 113 235 14 317 160 158 163 170 169 168 178 181 188 192 184 191 191 200 188 182 186
185 181 182 183 181 177 175 177 180 182 182 181 175 174 175 180 183 183 180 184 186 200 201 202 201 190 170 179 183 187 187 183 187 186 187 184 184 184 185 185 190 188 190 183 197 202 198 195 190 190 206 199 151 185 189 192 46 295 205 162 126 143 144 130 190 114 171 322 61 163 180 171 167 167 177 189 189 183 190 182 189 192 190 186 185
181 179 182 182 181 177 173 176 178 179 182 179 177 178 179 182 186 190 191 192 192 193 193 199 191 166 178 184 180 187 190 188 183 187 187 184 184 189 192 188 188 191 188 192 199 202 197 207 195 202 198 195 187 181 197 188 160 223 224 144 127 122 128 109 143 161 156 151 214 293 299 182 172 183 179 183 185 183 180 189 184 190 190 193 188
178 182 183 183 182 178 174 174 176 178 179 181 180 181 182 185 188 190 194 199 198 196 191 190 193 176 180 182 182 186 189 191 187 184 187 186 186 191 192 192 191 192 192 198 201 194 195 193 202 205 208 212 193 196 156 197 185 192 155 319 85 90 104 208 137 116 141 132 232 196 195 171 275 275 219 189 187 182 179 186 185 185 188 194 193
181 181 181 180 181 179 176 174 178 178 179 182 183 183 184 183 189 194 197 197 192 188 182 190 198 183 180 187 186 186 189 189 191 188 186 187 189 188 191 197 199 193 193 199 199 198 203 200 200 204 208 209 202 186 190 185 190 209 193 164 156 81 72 64 114 104 55 112 167 207 195 174 200 239 198 202 194 194 187 186 189 185 193 191 194
178 178 179 180 180 179 180 180 180 179 179 182 184 186 185 186 191 195 198 197 190 182 182 192 196 195 191 190 189 192 185 189 185 191 189 186 191 191 194 200 200 197 195 195 202 203 204 203 205 204 206 203 193 193 200 179 181 184 193 168 180 163 176 169 192 180 142 147 103 208 225 202 202 211 226 199 192 199 192 189 188 193 194 194 193